Location: Unspecified
(0.0000°N, 0.0000°E)
Time: 00:52:55
(UTC+00:00)

Vanguard 1 - Pass Details

Date: 16 December 2018
Orbit: 650 x 3833 km, 34.3° (Epoch: 17 January)

Event Time Altitude Azimuth Distance (km) Brightness Sun altitude
Rises 21:56:27 0° 223° (SW) 7,425 15.1 -52.8°
Reaches altitude 10° 22:05:20 10° 204° (SSW) 5,753 14.3 -54.4°
Maximum altitude 22:13:59 16° 172° (S) 4,423 13.5 -56.0°
Enters shadow 22:17:52 14° 152° (SSE) 4,157 13.3 -56.7°
